Terminal Aerodrome Forecast
Issued by NWS Cleveland, OH

Home | Current Version | Previous Version | Graphics & Text | Print | Product List | Glossary Off
Versions: 1 2 3 4 5 6 7 8 9 10 11 12 13 14 15 16 17 18 19 20

000
FTUS41 KCLE 231738 AAB
TAFCAK
TAF AMD
KCAK 231738Z 2318/2418 24015G25KT P6SM VCSH OVC025
     FM232100 24015G25KT P6SM VCSH OVC015
     FM240000 27015G25KT P6SM OVC020
     FM241200 31009KT P6SM VCSH OVC025=

USA.gov is the U.S. government's official web portal to all federal, state and local government web resources and services.